[Date Prev][Date Next][Thread Prev][Thread Next] - [Date Index][Thread Index][Author Index]

2 Line ISS Keps 10-3



ISS
1 25544U 98067A   02276.16030093  .00055685  00000-0  65283-3 0  2145
2 25544  51.6347 230.8205 0017186 328.6962  81.8736 15.60780477220874



----
Via the sarex mailing list at AMSAT.ORG courtesy of AMSAT-NA.
To unsubscribe, send "unsubscribe sarex" to Majordomo@amsat.org



AMSAT Top AMSAT Home